Regional Weather Roundup
Issued by NWS

Home | Current Version | Previous Version | Graphics & Text | Print | Product List | Glossary On
Versions: 1 2 3 4 5 6 7 8 9 10 11 12 13 14 15 16 17 18 19 20 21 22 23 24 25 26 27 28 29 30 31 32 33 34 35 36 37 38 39 40 41 42 43 44 45 46 47 48 49 50
961
ASUS43 KBIS 091902
RWRND

NORTH DAKOTA REGIONAL WEATHER ROUNDUP
NATIONAL WEATHER SERVICE BISMARCK ND
100 PM CST FRI DEC 09 2016

NOTE: "FAIR" INDICATES FEW OR NO CLOUDS BELOW 12,000 FEET WITH NO
SIGNIFICANT WEATHER AND/OR OBSTRUCTIONS TO VISIBILITY.


NDZ001>003-009>011-017-092000-
NORTHWEST NORTH DAKOTA

CITY           SKY/WX    TMP DP  RH WIND       PRES   REMARKS
WILLISTON      SUNNY     -4 -11  72 NE5       30.56F WCI -15
MINOT          SUNNY     -9 -15  75 NW14      30.55F WCI -30
MINOT AFB      SUNNY    -11 -16  75 NW13      30.55F WCI -31
$$

NDZ018>021-031>035-040>046-092000-
SOUTHWEST NORTH DAKOTA

CITY           SKY/WX    TMP DP  RH WIND       PRES   REMARKS
BISMARCK       CLOUDY     0  -6  76 NW9       30.56F WCI -15
DICKINSON      SUNNY     -9 -13  83 W5        30.44  WCI -20
GARRISON         N/A     -6 -12  75 NW14      30.52F WCI -26
HETTINGER ARPT MOSUNNY   -2  -6  83 CALM      30.44F
$$

NDZ004>008-012>016-024-026-027-054-092000-
NORTHEAST NORTH DAKOTA

CITY           SKY/WX    TMP DP  RH WIND       PRES   REMARKS
GRAND FORKS    CLOUDY     2  -7  66 NW12      30.57F WCI -15
GRND FRKS AFB  MOSUNNY    0  -9  65 NW10      30.57F WCI -17
DEVILS LAKE    SUNNY     -5 -12  72 NW13      30.53F WCI -24
$$

NDZ022-023-025-028>030-036>039-047>053-092000-
SOUTHEAST NORTH DAKOTA

CITY           SKY/WX    TMP DP  RH WIND       PRES   REMARKS
FARGO          PTSUNNY    5  -3  69 NW9       30.57F WCI  -9
JAMESTOWN      SUNNY     -2  -8  76 NW12      30.53F WCI -20
$$





USA.gov is the U.S. government's official web portal to all federal, state and local government web resources and services.